Location: *
(42.5628°N, 2.3633°E)
Time: 09:09:17
(UTC+00:00)

CZ-2C R/B - Pass Details

Date: 30 March 2020
Orbit: 785 x 870 km, 98.3° (Epoch: 03 June)

Event Time Altitude Azimuth Distance (km) Brightness Sun altitude
Rises 20:43:29 0° 7° (N) 3,297 6.1 -26.3°
Reaches altitude 10° 20:45:53 10° 3° (N) 2,359 5.4 -26.7°
Maximum altitude 20:50:52 50° 289° (WNW) 996 3.3 -27.4°
Enters shadow 20:55:28 12° 216° (SW) 2,202 4.8 -28.1°
